When you browse on this site, cookies collect data to enhance your experience and personalize the content and advertising you see.
Visit our Privacy Policy to learn more. By continuing to use the site, you agree to this use of cookies and data.
  • In Slovakia
  • List of Countries
  • For 7 days
  • Water Temperature
  • Satellite Maps
  • Weather Map
  • Weather Widgets
  • user-avatar
    Login

    Hourly Weather Ivankovo

    Today, 17 November, Saturday

    Time Temperature Precipitation Wind Pressure Humidity
    00:00 -2°C° 0 mm 3 mps 768 mmHg 83%
    01:00 -2°C° 0 mm 3 mps 768 mmHg 85%
    02:00 -3°C° 0 mm 2 mps 767 mmHg 89%
    03:00 -4°C° 0 mm 3 mps 767 mmHg 89%
    04:00 -2°C° 0 mm 3 mps 766 mmHg 89%
    05:00 -2°C° 0 mm 3 mps 765 mmHg 89%
    06:00 -2°C° 0 mm 3 mps 765 mmHg 87%
    07:00 -3°C° 0 mm 4 mps 765 mmHg 86%
    08:00 -3°C° 0 mm 4 mps 764 mmHg 84%
    09:00 -2°C° 0 mm 4 mps 764 mmHg 81%
    10:00 -2°C° 0 mm 4 mps 763 mmHg 77%
    11:00 -1°C° 0 mm 4 mps 763 mmHg 74%
    12:00 -1°C° 0.1 mm 4 mps 762 mmHg 74%
    13:00 -1°C° 0.1 mm 4 mps 761 mmHg 75%
    14:00 -1°C° 0.1 mm 4 mps 760 mmHg 76%
    15:00 -1°C° 0.6 mm 4 mps 760 mmHg 79%
    16:00 -1°C° 0.6 mm 4 mps 759 mmHg 83%
    17:00 -1°C° 0.6 mm 4 mps 758 mmHg 86%
    18:00 -1°C° 0.3 mm 4 mps 757 mmHg 87%
    19:00 -1°C° 0.3 mm 4 mps 756 mmHg 88%
    20:00 -1°C° 0.3 mm 5 mps 756 mmHg 89%
    21:00 -1°C° 0.1 mm 4 mps 755 mmHg 90%
    22:00 -1°C° 0.1 mm 4 mps 754 mmHg 90%
    23:00 -1°C° 0.1 mm 4 mps 754 mmHg 90%

    Tomorrow, 18 November, Sunday

    Time Temperature Precipitation Wind Pressure Humidity
    00:00 -1°C° 0.1 mm 4 mps 753 mmHg 91%
    01:00 -1°C° 0.1 mm 4 mps 752 mmHg 91%
    02:00 0°C° 0.1 mm 3 mps 752 mmHg 92%
    03:00 0°C° 0.1 mm 3 mps 751 mmHg 93%
    04:00 0°C° 0.1 mm 3 mps 751 mmHg 93%
    05:00 0°C° 0.1 mm 3 mps 751 mmHg 94%
    06:00 0°C° 0.1 mm 3 mps 751 mmHg 95%
    07:00 +1°C° 0.1 mm 2 mps 751 mmHg 95%
    08:00 +1°C° 0.1 mm 2 mps 750 mmHg 96%
    09:00 +1°C° 0.1 mm 2 mps 751 mmHg 96%
    10:00 +3°C° 0.1 mm 1 mps 751 mmHg 96%
    11:00 +3°C° 0.1 mm 1 mps 751 mmHg 96%
    12:00 +3°C° 0.1 mm 1 mps 751 mmHg 96%
    13:00 +3°C° 0.1 mm 1 mps 752 mmHg 97%
    14:00 +3°C° 0.1 mm 1 mps 752 mmHg 97%
    15:00 +2°C° 0.1 mm 1 mps 752 mmHg 97%
    16:00 +2°C° 0.1 mm 1 mps 753 mmHg 97%
    17:00 +2°C° 0.1 mm 1 mps 753 mmHg 98%
    18:00 +2°C° 0 mm 1 mps 753 mmHg 98%
    19:00 +2°C° 0 mm 1 mps 754 mmHg 98%
    20:00 +2°C° 0 mm 1 mps 754 mmHg 97%
    21:00 +2°C° 0.1 mm 1 mps 754 mmHg 97%
    22:00 +2°C° 0.1 mm 1 mps 755 mmHg 97%
    23:00 +2°C° 0.1 mm 1 mps 755 mmHg 97%

    Day after tomorrow, 19 November, Monday

    Time Temperature Precipitation Wind Pressure Humidity
    00:00 +1°C° 0 mm 2 mps 756 mmHg 97%
    01:00 +1°C° 0 mm 2 mps 756 mmHg 97%
    02:00 +1°C° 0 mm 2 mps 756 mmHg 97%
    03:00 +1°C° 0.1 mm 2 mps 757 mmHg 97%
    04:00 +1°C° 0.1 mm 2 mps 757 mmHg 96%
    05:00 +1°C° 0.1 mm 2 mps 757 mmHg 96%
    06:00 +1°C° 0 mm 2 mps 758 mmHg 96%
    07:00 +1°C° 0 mm 2 mps 759 mmHg 95%
    08:00 +1°C° 0 mm 2 mps 759 mmHg 95%
    09:00 +1°C° 0 mm 2 mps 759 mmHg 94%
    10:00 +1°C° 0 mm 2 mps 760 mmHg 93%
    11:00 +2°C° 0 mm 2 mps 760 mmHg 92%
    12:00 +2°C° 0 mm 2 mps 761 mmHg 92%
    13:00 +1°C° 0 mm 2 mps 761 mmHg 92%
    14:00 +1°C° 0 mm 2 mps 761 mmHg 93%
    15:00 +1°C° 0 mm 2 mps 761 mmHg 93%
    16:00 +1°C° 0 mm 2 mps 761 mmHg 94%
    17:00 +1°C° 0 mm 2 mps 762 mmHg 95%
    18:00 -1°C° 0 mm 2 mps 762 mmHg 95%
    19:00 -1°C° 0 mm 2 mps 762 mmHg 95%
    20:00 -1°C° 0 mm 2 mps 762 mmHg 95%
    21:00 -1°C° 0 mm 2 mps 762 mmHg 95%
    22:00 -1°C° 0 mm 2 mps 762 mmHg 95%
    23:00 +1°C° 0 mm 1 mps 762 mmHg 96%

    20 November, Tuesday

    Time Temperature Precipitation Wind Pressure Humidity
    00:00 +1°C° 0 mm 1 mps 762 mmHg 96%
    01:00 0°C° 0 mm 1 mps 761 mmHg 96%
    02:00 0°C° 0 mm 1 mps 761 mmHg 97%
    03:00 0°C° 0 mm 1 mps 761 mmHg 96%
    04:00 0°C° 0 mm 1 mps 761 mmHg 96%
    05:00 0°C° 0 mm 1 mps 760 mmHg 96%
    06:00 0°C° 0 mm 1 mps 760 mmHg 96%
    07:00 0°C° 0 mm 1 mps 760 mmHg 96%
    08:00 0°C° 0 mm 1 mps 760 mmHg 95%
    09:00 +1°C° 0 mm 1 mps 759 mmHg 93%
    10:00 0°C° 0 mm 0 mps 759 mmHg 92%
    11:00 0°C° 0 mm 0 mps 759 mmHg 90%
    12:00 0°C° 0 mm 0 mps 758 mmHg 90%
    13:00 0°C° 0 mm 0 mps 758 mmHg 90%
    14:00 0°C° 0 mm 0 mps 758 mmHg 89%
    15:00 0°C° 0 mm 0 mps 757 mmHg 90%
    16:00 0°C° 0 mm 0 mps 757 mmHg 91%
    17:00 +1°C° 0 mm 1 mps 757 mmHg 93%
    18:00 +1°C° 0 mm 1 mps 756 mmHg 93%
    19:00 0°C° 0 mm 1 mps 756 mmHg 93%
    20:00 0°C° 0 mm 1 mps 756 mmHg 93%
    21:00 0°C° 0 mm 1 mps 756 mmHg 93%
    22:00 0°C° 0 mm 1 mps 756 mmHg 94%
    23:00 0°C° 0 mm 1 mps 755 mmHg 94%

    21 November, Wednesday

    Time Temperature Precipitation Wind Pressure Humidity
    00:00 -1°C° 0 mm 1 mps 755 mmHg 94%
    01:00 -1°C° 0 mm 1 mps 755 mmHg 94%
    02:00 -1°C° 0 mm 1 mps 755 mmHg 95%
    03:00 -3°C° 0 mm 2 mps 755 mmHg 95%
    04:00 -4°C° 0 mm 2 mps 755 mmHg 95%
    05:00 -4°C° 0 mm 2 mps 755 mmHg 96%
    06:00 -4°C° 0 mm 2 mps 755 mmHg 95%
    07:00 -4°C° 0 mm 2 mps 755 mmHg 95%
    08:00 -4°C° 0 mm 2 mps 755 mmHg 94%
    09:00 -3°C° 0 mm 2 mps 755 mmHg 90%
    10:00 -3°C° 0 mm 2 mps 756 mmHg 87%
    11:00 -2°C° 0 mm 3 mps 756 mmHg 83%
    12:00 -2°C° 0 mm 3 mps 756 mmHg 83%
    13:00 -2°C° 0 mm 3 mps 756 mmHg 83%
    14:00 -1°C° 0 mm 3 mps 756 mmHg 83%
    15:00 -1°C° 0 mm 3 mps 756 mmHg 84%
    16:00 -1°C° 0 mm 3 mps 756 mmHg 86%
    17:00 -2°C° 0 mm 3 mps 756 mmHg 87%
    18:00 -2°C° 0 mm 3 mps 756 mmHg 86%
    19:00 -2°C° 0 mm 3 mps 757 mmHg 85%
    20:00 -2°C° 0 mm 2 mps 757 mmHg 84%
    21:00 -2°C° 0 mm 2 mps 757 mmHg 84%
    22:00 -2°C° 0 mm 2 mps 757 mmHg 83%
    23:00 -2°C° 0 mm 2 mps 757 mmHg 83%

    22 November, Thursday

    Time Temperature Precipitation Wind Pressure Humidity
    00:00 -3°C° 0 mm 2 mps 757 mmHg 85%
    01:00 -4°C° 0 mm 2 mps 757 mmHg 87%
    02:00 -4°C° 0 mm 2 mps 757 mmHg 89%
    03:00 -5°C° 0 mm 3 mps 756 mmHg 90%
    04:00 -5°C° 0 mm 3 mps 756 mmHg 90%
    05:00 -5°C° 0 mm 3 mps 756 mmHg 90%
    06:00 -5°C° 0 mm 3 mps 756 mmHg 89%
    07:00 -5°C° 0 mm 4 mps 756 mmHg 88%
    08:00 -5°C° 0 mm 4 mps 755 mmHg 86%
    09:00 -4°C° 0 mm 4 mps 755 mmHg 84%
    10:00 -3°C° 0 mm 4 mps 755 mmHg 81%
    11:00 -3°C° 0 mm 4 mps 755 mmHg 79%
    12:00 -3°C° 0 mm 4 mps 755 mmHg 79%
    13:00 -4°C° 0 mm 5 mps 755 mmHg 79%
    14:00 -2°C° 0 mm 5 mps 755 mmHg 80%
    15:00 -2°C° 0 mm 4 mps 755 mmHg 81%
    16:00 -2°C° 0 mm 4 mps 755 mmHg 82%
    17:00 -2°C° 0 mm 4 mps 756 mmHg 84%
    18:00 -1°C° 0 mm 3 mps 756 mmHg 85%
    19:00 -1°C° 0 mm 3 mps 756 mmHg 86%
    20:00 -1°C° 0 mm 3 mps 756 mmHg 88%
    21:00 -1°C° 0 mm 3 mps 756 mmHg 88%
    22:00 -2°C° 0 mm 3 mps 756 mmHg 89%
    23:00 -2°C° 0 mm 3 mps 756 mmHg 90%
    Show more